Time,TemperatureF,DewpointF,PressureIn,WindDirection,WindDirectionDegrees,WindSpeedMPH,WindSpeedGustMPH,Humidity,HourlyPrecipIn,Conditions,Clouds,dailyrainin,SolarRadiationWatts/m^2,SoftwareType,DateUTC
2013-10-25 00:11:00,40.0,19.0,-100.00,SW,223,1.0,5.0,43,0.00,,,0.00,0.000000,,2013-10-25 06:11:00,
2013-10-25 00:21:00,40.0,19.0,-100.00,SW,223,1.0,5.0,43,0.00,,,0.00,0.000000,,2013-10-25 06:21:00,
2013-10-25 00:31:00,40.0,19.0,-100.00,SW,223,1.0,5.0,43,0.00,,,0.00,0.000000,,2013-10-25 06:31:00,
2013-10-25 00:40:00,43.0,19.0,-100.00,West,268,7.0,12.0,38,0.00,,,0.00,0.000000,,2013-10-25 06:40:00,
2013-10-25 01:11:00,43.0,19.0,-100.00,West,268,7.0,12.0,38,0.00,,,0.00,0.000000,,2013-10-25 07:11:00,
2013-10-25 01:21:00,43.0,19.0,-100.00,West,268,7.0,12.0,38,0.00,,,0.00,0.000000,,2013-10-25 07:21:00,
2013-10-25 01:31:00,43.0,19.0,-100.00,West,268,7.0,12.0,38,0.00,,,0.00,0.000000,,2013-10-25 07:31:00,
2013-10-25 01:40:00,39.0,18.0,-100.00,West,278,6.0,12.0,42,0.00,,,0.00,0.000000,,2013-10-25 07:40:00,
2013-10-25 02:10:00,39.0,18.0,-100.00,West,278,6.0,12.0,42,0.00,,,0.00,0.000000,,2013-10-25 08:10:00,
2013-10-25 02:21:00,39.0,18.0,-100.00,West,278,6.0,12.0,42,0.00,,,0.00,0.000000,,2013-10-25 08:21:00,
2013-10-25 02:31:00,39.0,18.0,-100.00,West,278,6.0,12.0,42,0.00,,,0.00,0.000000,,2013-10-25 08:31:00,
2013-10-25 02:40:00,43.0,16.0,-100.00,WSW,237,9.0,15.0,33,0.00,,,0.00,0.000000,,2013-10-25 08:40:00,
2013-10-25 03:11:00,43.0,16.0,-100.00,WSW,237,9.0,15.0,33,0.00,,,0.00,0.000000,,2013-10-25 09:11:00,
2013-10-25 03:21:00,43.0,16.0,-100.00,WSW,237,9.0,15.0,33,0.00,,,0.00,0.000000,,2013-10-25 09:21:00,
2013-10-25 03:32:00,43.0,16.0,-100.00,WSW,237,9.0,15.0,33,0.00,,,0.00,0.000000,,2013-10-25 09:32:00,
2013-10-25 03:40:00,44.0,17.0,-100.00,West,266,6.0,13.0,34,0.00,,,0.00,0.000000,,2013-10-25 09:40:00,
2013-10-25 04:11:00,44.0,17.0,-100.00,West,266,6.0,13.0,34,0.00,,,0.00,0.000000,,2013-10-25 10:11:00,
2013-10-25 04:21:00,44.0,17.0,-100.00,West,266,6.0,13.0,34,0.00,,,0.00,0.000000,,2013-10-25 10:21:00,
2013-10-25 04:32:00,44.0,17.0,-100.00,West,266,6.0,13.0,34,0.00,,,0.00,0.000000,,2013-10-25 10:32:00,
2013-10-25 04:40:00,42.0,20.0,-100.00,West,269,7.0,13.0,41,0.00,,,0.00,0.000000,,2013-10-25 10:40:00,
2013-10-25 05:11:00,42.0,20.0,-100.00,West,269,7.0,13.0,41,0.00,,,0.00,0.000000,,2013-10-25 11:11:00,
2013-10-25 05:21:00,42.0,20.0,-100.00,West,269,7.0,13.0,41,0.00,,,0.00,0.000000,,2013-10-25 11:21:00,
2013-10-25 05:32:00,42.0,20.0,-100.00,West,269,7.0,13.0,41,0.00,,,0.00,0.000000,,2013-10-25 11:32:00,
2013-10-25 05:40:00,43.0,16.0,-100.00,West,266,8.0,19.0,33,0.00,,,0.00,0.000000,,2013-10-25 11:40:00,
2013-10-25 06:10:00,43.0,16.0,-100.00,West,266,8.0,19.0,33,0.00,,,0.00,0.000000,,2013-10-25 12:10:00,
2013-10-25 06:21:00,43.0,16.0,-100.00,West,266,8.0,19.0,33,0.00,,,0.00,0.000000,,2013-10-25 12:21:00,
2013-10-25 06:31:00,43.0,16.0,-100.00,West,266,8.0,19.0,33,0.00,,,0.00,0.000000,,2013-10-25 12:31:00,
2013-10-25 06:40:00,43.0,15.0,-100.00,West,267,8.0,18.0,32,0.00,,,0.00,0.000000,,2013-10-25 12:40:00,
2013-10-25 07:11:00,43.0,15.0,-100.00,West,267,8.0,18.0,32,0.00,,,0.00,0.000000,,2013-10-25 13:11:00,
2013-10-25 07:21:00,43.0,15.0,-100.00,West,267,8.0,18.0,32,0.00,,,0.00,0.000000,,2013-10-25 13:21:00,
2013-10-25 07:32:00,43.0,15.0,-100.00,West,267,8.0,18.0,32,0.00,,,0.00,0.000000,,2013-10-25 13:32:00,
2013-10-25 08:11:00,44.0,16.0,-100.00,West,273,10.0,19.0,32,0.00,,,0.00,0.000000,,2013-10-25 14:11:00,
2013-10-25 08:22:00,44.0,16.0,-100.00,West,273,10.0,19.0,32,0.00,,,0.00,0.000000,,2013-10-25 14:22:00,
2013-10-25 08:31:00,44.0,16.0,-100.00,West,273,10.0,19.0,32,0.00,,,0.00,0.000000,,2013-10-25 14:31:00,
2013-10-25 11:40:00,57.0,17.0,-100.00,West,270,6.0,13.0,21,-99.99,,,0.00,596.000000,,2013-10-25 17:40:00,
2013-10-25 12:40:00,57.0,22.0,-100.00,ENE,62,5.0,10.0,25,0.00,,,0.00,695.000000,,2013-10-25 18:40:00,
2013-10-25 13:11:00,57.0,22.0,-100.00,ENE,62,5.0,10.0,25,0.00,,,0.00,695.000000,,2013-10-25 19:11:00,
2013-10-25 13:22:00,57.0,22.0,-100.00,ENE,62,5.0,10.0,25,0.00,,,0.00,695.000000,,2013-10-25 19:22:00,
2013-10-25 13:32:00,57.0,22.0,-100.00,ENE,62,5.0,10.0,25,0.00,,,0.00,695.000000,,2013-10-25 19:32:00,
2013-10-25 13:40:00,55.0,24.0,-100.00,ENE,64,3.0,9.0,30,0.00,,,0.00,715.000000,,2013-10-25 19:40:00,
2013-10-25 14:12:00,55.0,24.0,-100.00,ENE,64,3.0,9.0,30,0.00,,,0.00,715.000000,,2013-10-25 20:12:00,
2013-10-25 14:22:00,55.0,24.0,-100.00,ENE,64,3.0,9.0,30,0.00,,,0.00,715.000000,,2013-10-25 20:22:00,
2013-10-25 14:32:00,55.0,24.0,-100.00,ENE,64,3.0,9.0,30,0.00,,,0.00,715.000000,,2013-10-25 20:32:00,
2013-10-25 14:40:00,56.0,23.0,-100.00,NNE,24,3.0,8.0,27,0.00,,,0.00,670.000000,,2013-10-25 20:40:00,
2013-10-25 15:11:00,56.0,23.0,-100.00,NNE,24,3.0,8.0,27,0.00,,,0.00,670.000000,,2013-10-25 21:11:00,
2013-10-25 15:21:00,56.0,23.0,-100.00,NNE,24,3.0,8.0,27,0.00,,,0.00,670.000000,,2013-10-25 21:21:00,
2013-10-25 15:33:00,56.0,23.0,-100.00,NNE,24,3.0,8.0,27,0.00,,,0.00,670.000000,,2013-10-25 21:33:00,
2013-10-25 15:40:00,51.0,21.0,-100.00,NE,44,3.0,7.0,30,0.00,,,0.00,570.000000,,2013-10-25 21:40:00,
2013-10-25 16:13:00,51.0,21.0,-100.00,NE,44,3.0,7.0,30,0.00,,,0.00,570.000000,,2013-10-25 22:13:00,
2013-10-25 16:23:00,51.0,21.0,-100.00,NE,44,3.0,7.0,30,0.00,,,0.00,570.000000,,2013-10-25 22:23:00,
2013-10-25 16:34:00,51.0,21.0,-100.00,NE,44,3.0,7.0,30,0.00,,,0.00,570.000000,,2013-10-25 22:34:00,
2013-10-25 16:40:00,50.0,27.0,-100.00,NNE,26,1.0,5.0,40,0.00,,,0.00,404.000000,,2013-10-25 22:40:00,
2013-10-25 17:12:00,50.0,27.0,-100.00,NNE,26,1.0,5.0,40,0.00,,,0.00,404.000000,,2013-10-25 23:12:00,
2013-10-25 17:22:00,50.0,27.0,-100.00,NNE,26,1.0,5.0,40,0.00,,,0.00,404.000000,,2013-10-25 23:22:00,
2013-10-25 17:34:00,50.0,27.0,-100.00,NNE,26,1.0,5.0,40,0.00,,,0.00,404.000000,,2013-10-25 23:34:00,
2013-10-25 17:40:00,45.0,24.0,-100.00,NNW,341,1.0,5.0,44,0.00,,,0.00,156.000000,,2013-10-25 23:40:00,
2013-10-25 18:11:00,45.0,24.0,-100.00,NNW,341,1.0,5.0,44,0.00,,,0.00,156.000000,,2013-10-26 00:11:00,
2013-10-25 18:21:00,45.0,24.0,-100.00,NNW,341,1.0,5.0,44,0.00,,,0.00,156.000000,,2013-10-26 00:21:00,
2013-10-25 18:32:00,45.0,24.0,-100.00,NNW,341,1.0,5.0,44,0.00,,,0.00,156.000000,,2013-10-26 00:32:00,
2013-10-25 18:40:00,38.0,27.0,-100.00,SSW,213,1.0,5.0,64,0.00,,,0.00,7.000000,,2013-10-26 00:40:00,
2013-10-25 19:12:00,38.0,27.0,-100.00,SSW,213,1.0,5.0,64,0.00,,,0.00,7.000000,,2013-10-26 01:12:00,
2013-10-25 19:21:00,38.0,27.0,-100.00,SSW,213,1.0,5.0,64,0.00,,,0.00,7.000000,,2013-10-26 01:21:00,
2013-10-25 19:32:00,38.0,27.0,-100.00,SSW,213,1.0,5.0,64,0.00,,,0.00,7.000000,,2013-10-26 01:32:00,
2013-10-25 19:40:00,36.0,26.0,-100.00,ESE,123,0.0,3.0,68,0.00,,,0.00,0.000000,,2013-10-26 01:40:00,
2013-10-25 20:12:00,36.0,26.0,-100.00,ESE,123,0.0,3.0,68,0.00,,,0.00,0.000000,,2013-10-26 02:12:00,
2013-10-25 20:22:00,36.0,26.0,-100.00,ESE,123,0.0,3.0,68,0.00,,,0.00,0.000000,,2013-10-26 02:22:00,
2013-10-25 20:32:00,36.0,26.0,-100.00,ESE,123,0.0,3.0,68,0.00,,,0.00,0.000000,,2013-10-26 02:32:00,
2013-10-25 20:40:00,36.0,27.0,-100.00,East,94,0.0,4.0,70,0.00,,,0.00,0.000000,,2013-10-26 02:40:00,
2013-10-25 21:12:00,36.0,27.0,-100.00,East,94,0.0,4.0,70,0.00,,,0.00,0.000000,,2013-10-26 03:12:00,
2013-10-25 21:22:00,36.0,27.0,-100.00,East,94,0.0,4.0,70,0.00,,,0.00,0.000000,,2013-10-26 03:22:00,
2013-10-25 21:35:00,36.0,27.0,-100.00,East,94,0.0,4.0,70,0.00,,,0.00,0.000000,,2013-10-26 03:35:00,
2013-10-25 21:40:00,36.0,27.0,-100.00,SW,220,1.0,5.0,69,0.00,,,0.00,0.000000,,2013-10-26 03:40:00,
2013-10-25 22:14:00,36.0,27.0,-100.00,SW,220,1.0,5.0,69,0.00,,,0.00,0.000000,,2013-10-26 04:14:00,
2013-10-25 22:24:00,36.0,27.0,-100.00,SW,220,1.0,5.0,69,0.00,,,0.00,0.000000,,2013-10-26 04:24:00,
2013-10-25 22:33:00,36.0,27.0,-100.00,SW,220,1.0,5.0,69,0.00,,,0.00,0.000000,,2013-10-26 04:33:00,
2013-10-25 22:40:00,38.0,27.0,-100.00,SSW,213,6.0,10.0,65,0.00,,,0.00,0.000000,,2013-10-26 04:40:00,
2013-10-25 23:13:00,38.0,27.0,-100.00,SSW,213,6.0,10.0,65,0.00,,,0.00,0.000000,,2013-10-26 05:13:00,
2013-10-25 23:23:00,38.0,27.0,-100.00,SSW,213,6.0,10.0,65,0.00,,,0.00,0.000000,,2013-10-26 05:23:00,
2013-10-25 23:34:00,38.0,27.0,-100.00,SSW,213,6.0,10.0,65,0.00,,,0.00,0.000000,,2013-10-26 05:34:00,
2013-10-25 23:40:00,36.0,26.0,-100.00,SW,227,2.0,7.0,67,0.00,,,0.00,0.000000,,2013-10-26 05:40:00,